Address 0x372e4887005ec21a5aff9ff62eda9e7713e36437

Txn Hash
Block
From
To
Value [Txn Fee]
0x100d6cba00ab4fb1ac2dca2afd026a02fdb45b4dc23ad282b56e15117a944a0393007262021-05-30 18:01:5223 days 4 hrs ago0x7bb9d89e447651809ee2225463165e42d78acc4a IN 0x372e4887005ec21a5aff9ff62eda9e7713e364370.00001 BNB0.00021
0x757e16c0bb18fae39832ba4801effb1c51c660eaa4a6f227d3b79740659f175792963062021-05-30 14:20:5223 days 8 hrs ago0xc591d20c10630df4b14712eaac35b2a781800947 IN 0x372e4887005ec21a5aff9ff62eda9e7713e364370.1 BNB0.00021
0x48c063c3728934bb04983dc59d405222e7f25ee4442d5de21cb436299d34decd92955662021-05-30 13:40:5523 days 9 hrs ago0x372e4887005ec21a5aff9ff62eda9e7713e36437OUT SlashIndicator0 BNB0
0xbe5dfbfd3542d2443f2c4cfbe9e260ff5102dc475efa0d4e8c8e6835b86677cc92953352021-05-30 13:26:0723 days 9 hrs ago0x372e4887005ec21a5aff9ff62eda9e7713e36437OUT SlashIndicator0 BNB0
0x1057216412757a758ef6080f1d03fda203642a16641332625c2b776b32e36d4392948842021-05-30 12:57:1623 days 10 hrs ago0x372e4887005ec21a5aff9ff62eda9e7713e36437OUT SlashIndicator0 BNB0
0xee0a019f0d597f1b2f8786b724452487dc68080d9c6b4d3d9a2dac7c6264c1c892943672021-05-30 12:23:5123 days 10 hrs ago0x372e4887005ec21a5aff9ff62eda9e7713e36437OUT SlashIndicator0 BNB0
0x0f74ea52c401aba3bacc9ef2885b18b9d4a63078e133ff23da4cc2e13726f58592941252021-05-30 12:08:1023 days 10 hrs ago0x372e4887005ec21a5aff9ff62eda9e7713e36437OUT SlashIndicator0 BNB0
0x7a48cb2e60fdd2dfef4fdf22a3c4dbe0b7d9ea899ec851e6def3a107e28d1ae392690892021-05-29 15:14:3824 days 7 hrs ago0xc3995b439dfab7aa38730da22434666824de0df6 IN 0x372e4887005ec21a5aff9ff62eda9e7713e364370.99958 BNB0.00021
0x751f65eccfe1bd78f9ac57249cb4fbfb4c3d76272a99c25d07237589a085b3e792690772021-05-29 15:14:0224 days 7 hrs ago0xc3995b439dfab7aa38730da22434666824de0df6 IN 0x372e4887005ec21a5aff9ff62eda9e7713e364370 BNB0.00021
0x1412e243d8ae26b02a460d7dc95db217fe35fe181a2832f6b01ad1f2de85b40792689162021-05-29 15:05:5924 days 7 hrs ago0x2b60ec7fb5d67451c68433249fca15bf633be84c IN 0x372e4887005ec21a5aff9ff62eda9e7713e364370.99979 BNB0.00021
0x3855879579b1d37e6c670faf066d25c100ba197c5f95eab919902ab6debf30ea92683582021-05-29 14:38:0524 days 8 hrs ago0xff33ac6e17b3f0eef5687f9c0b5312699ec78d63 IN 0x372e4887005ec21a5aff9ff62eda9e7713e364370.99958 BNB0.00021
0xbc7317887a50acf2b500cd5b3788a0d5b795bc1abe43bded9f2f458555c7190392675712021-05-29 13:58:4424 days 9 hrs ago0xcb4ebbbe2a4642318128205c286468c2eae5191d IN 0x372e4887005ec21a5aff9ff62eda9e7713e364370.99958 BNB0.00021
0x96b31c040dcc2983628b09acc2719954ceb79d518bcf3605a52b361f070161a792675632021-05-29 13:58:2024 days 9 hrs ago0xcb4ebbbe2a4642318128205c286468c2eae5191d IN 0x372e4887005ec21a5aff9ff62eda9e7713e364370 BNB0.00021
0xfffe6ab284c89d06de17cc121e812e7dbcc21c1a69ed05a3c914e24a99c601cd92659102021-05-29 12:35:4124 days 10 hrs ago0x701c9f7ace8ad3dae984d8368af7052b80af6acf IN 0x372e4887005ec21a5aff9ff62eda9e7713e364370.99979 BNB0.00021
0x39dad66b5febc6a3e20b0f3758f56e07b77cc901caa2ff09daf27b4d03a4108992614902021-05-29 8:54:4124 days 14 hrs ago0x9c64e3f6c0c55fd8c90479c3b7cff3a3d59242df IN 0x372e4887005ec21a5aff9ff62eda9e7713e364370.99958 BNB0.00021
0xcbcca40af70c0dbdad9bc83206fa6d11a92710bad03a15ccaea7441d295eb39592614722021-05-29 8:53:4724 days 14 hrs ago0x9c64e3f6c0c55fd8c90479c3b7cff3a3d59242df IN 0x372e4887005ec21a5aff9ff62eda9e7713e364370 BNB0.00021
0x8bb786c22df35f2eb0c0690b89f2d5e6718321c0c2f3c1b603d9883f8850542b92594492021-05-29 7:12:3824 days 15 hrs ago0xef2ab89086ba4a519b558ed23017b8a8b422f4e7 IN 0x372e4887005ec21a5aff9ff62eda9e7713e364370.1 BNB0.00021
0x550413feb2456d4b786c2fb5672a2baa5fe1f248c204b0c3d59c1bf7554170a792583522021-05-29 6:17:4724 days 16 hrs ago0x8603a760ec4b481bcf800f92ab8f93162e2b07ff IN 0x372e4887005ec21a5aff9ff62eda9e7713e364370.1 BNB0.00021
0xae77d0dde6f3f0cc8a6e4b61a1245ca4bbbdced84a7debb0f65b11f9286acf3592258142021-05-28 3:10:5325 days 19 hrs ago0x5cc402925633448af298f9a751e280f666b0519e IN 0x372e4887005ec21a5aff9ff62eda9e7713e364370.99979 BNB0.00021
0x65efa0eea44d5be658f278580f6c7c3405ba16651693c1917e2b94de465a6ec292235882021-05-28 1:19:3525 days 21 hrs ago0xcefacc6de3cfea1598482fb8ee34c0e8cb28a461 IN 0x372e4887005ec21a5aff9ff62eda9e7713e364370.99979 BNB0.00021
0x58ca5c430878d1f9ddf441267d90531ac6a58d26e169bfac3e1a3906d96c5fcb92192982021-05-27 21:45:0526 days 1 hr ago0x1cf17b198d95fa43f900f5423dcd0a7673c0f1e7 IN 0x372e4887005ec21a5aff9ff62eda9e7713e364370.5 BNB0.00021
0xc179c30a5cc5da9343e4e38b19f6b39aa6eed37cd5b2774cf5df42aaf6940f6092180452021-05-27 20:42:2626 days 2 hrs ago0x395d749efc0f41e3f84eec1d4ba03ebc2273c40c IN 0x372e4887005ec21a5aff9ff62eda9e7713e364370.99979 BNB0.00021
0x25525ba428cdb5e71353f2a9787cae61f52769d86db9a0538fb9eabcb60b389492178102021-05-27 20:30:4126 days 2 hrs ago0x9f8f1e53b774c19873a0a42d10e28b445cc74eb6 IN 0x372e4887005ec21a5aff9ff62eda9e7713e364370 BNB0.00021
0xeab893f5bdb82125986600b6be30eeba9f9884199fd09ee71660b9a2c3838f2f92177442021-05-27 20:27:2326 days 2 hrs ago0x6ffff661ac85307af7d73989a61f753056e9056f IN 0x372e4887005ec21a5aff9ff62eda9e7713e364370.99958 BNB0.00021
0x488cfb075430a78b05ed0d3877730b66acfd2c5ce66196807450131763151ff092177182021-05-27 20:26:0526 days 2 hrs ago0x6ffff661ac85307af7d73989a61f753056e9056f IN 0x372e4887005ec21a5aff9ff62eda9e7713e364370 BNB0.00021
[ Download CSV Export 
Parent Txn Hash Block From To Value
Loading

Contract Name:
0 BNB

Compiler Version
0

Optimization Enabled:
0 BNB

Other Settings:
-NA-

 Latest 25 blocks (From a total of 206,117 blocks with 2,629.09 BNB in fees)

Block Transaction Gas Used Reward
93156062021-05-31 6:26:0222 days 16 hrs ago00 (0.00%)
0 BNB
93155952021-05-31 6:25:2922 days 16 hrs ago00 (0.00%)
0 BNB
93155842021-05-31 6:24:5622 days 16 hrs ago00 (0.00%)
0 BNB
93155732021-05-31 6:24:2322 days 16 hrs ago00 (0.00%)
0 BNB
93155622021-05-31 6:23:5022 days 16 hrs ago00 (0.00%)
0 BNB
93155512021-05-31 6:23:1722 days 16 hrs ago00 (0.00%)
0 BNB
93155402021-05-31 6:22:4422 days 16 hrs ago00 (0.00%)
0 BNB
93155292021-05-31 6:22:1122 days 16 hrs ago00 (0.00%)
0 BNB
93155182021-05-31 6:21:3822 days 16 hrs ago00 (0.00%)
0 BNB
93155072021-05-31 6:21:0522 days 16 hrs ago00 (0.00%)
0 BNB
93154962021-05-31 6:20:3222 days 16 hrs ago00 (0.00%)
0 BNB
93154852021-05-31 6:19:5922 days 16 hrs ago00 (0.00%)
0 BNB
93154742021-05-31 6:19:2622 days 16 hrs ago00 (0.00%)
0 BNB
93154632021-05-31 6:18:5322 days 16 hrs ago00 (0.00%)
0 BNB
93154522021-05-31 6:18:2022 days 16 hrs ago00 (0.00%)
0 BNB
93154412021-05-31 6:17:4722 days 16 hrs ago00 (0.00%)
0 BNB
93154302021-05-31 6:17:1422 days 16 hrs ago00 (0.00%)
0 BNB
93154192021-05-31 6:16:4122 days 16 hrs ago00 (0.00%)
0 BNB
93154082021-05-31 6:16:0822 days 16 hrs ago00 (0.00%)
0 BNB
93153972021-05-31 6:15:3522 days 16 hrs ago00 (0.00%)
0 BNB
93153862021-05-31 6:15:0222 days 16 hrs ago00 (0.00%)
0 BNB
93153752021-05-31 6:14:2922 days 16 hrs ago00 (0.00%)
0 BNB
93153642021-05-31 6:13:5622 days 16 hrs ago00 (0.00%)
0 BNB
93153532021-05-31 6:13:2322 days 16 hrs ago00 (0.00%)
0 BNB
93153422021-05-31 6:12:5022 days 16 hrs ago00 (0.00%)
0 BNB

 Latest 25 Validator Set (From a total of 109933 validator set)

Age Block Fee Address BC Fee Address Voting Power Jailed Incoming
2021-05-31 8:12:0022 days 14 hrs ago93172400x8ef4f611972817576e221a4a2de3876dc345c3fe0xceb1b3892700a9d8546b9467504fb5bd8be6c04d 500,758.04757349 BNBNo0 BNB
2021-05-31 8:11:0022 days 14 hrs ago93172240x8ef4f611972817576e221a4a2de3876dc345c3fe0xceb1b3892700a9d8546b9467504fb5bd8be6c04d 500,758.04757349 BNBNo0 BNB
2021-05-31 8:10:0022 days 14 hrs ago93172090x8ef4f611972817576e221a4a2de3876dc345c3fe0xceb1b3892700a9d8546b9467504fb5bd8be6c04d 500,758.04757349 BNBNo0 BNB
2021-05-31 8:09:0022 days 14 hrs ago93171930x8ef4f611972817576e221a4a2de3876dc345c3fe0xceb1b3892700a9d8546b9467504fb5bd8be6c04d 500,758.04757349 BNBNo0 BNB
2021-05-31 8:08:0022 days 14 hrs ago93171780x8ef4f611972817576e221a4a2de3876dc345c3fe0xceb1b3892700a9d8546b9467504fb5bd8be6c04d 500,758.04757349 BNBNo0 BNB
2021-05-31 8:07:0022 days 14 hrs ago93171630x8ef4f611972817576e221a4a2de3876dc345c3fe0xceb1b3892700a9d8546b9467504fb5bd8be6c04d 500,758.04757349 BNBNo0 BNB
2021-05-31 8:06:0022 days 14 hrs ago93171460x8ef4f611972817576e221a4a2de3876dc345c3fe0xceb1b3892700a9d8546b9467504fb5bd8be6c04d 500,758.04757349 BNBNo0 BNB
2021-05-31 8:05:0022 days 14 hrs ago93171320x8ef4f611972817576e221a4a2de3876dc345c3fe0xceb1b3892700a9d8546b9467504fb5bd8be6c04d 500,758.04757349 BNBNo0 BNB
2021-05-31 8:04:0022 days 14 hrs ago93171140x8ef4f611972817576e221a4a2de3876dc345c3fe0xceb1b3892700a9d8546b9467504fb5bd8be6c04d 500,758.04757349 BNBNo0 BNB
2021-05-31 8:03:0022 days 14 hrs ago93170980x8ef4f611972817576e221a4a2de3876dc345c3fe0xceb1b3892700a9d8546b9467504fb5bd8be6c04d 500,758.04757349 BNBNo0 BNB
2021-05-31 8:02:0022 days 14 hrs ago93170830x8ef4f611972817576e221a4a2de3876dc345c3fe0xceb1b3892700a9d8546b9467504fb5bd8be6c04d 500,758.04757349 BNBNo0 BNB
2021-05-31 8:01:0022 days 14 hrs ago93170670x8ef4f611972817576e221a4a2de3876dc345c3fe0xceb1b3892700a9d8546b9467504fb5bd8be6c04d 500,758.04757349 BNBNo0 BNB
2021-05-31 8:00:0022 days 14 hrs ago93170510x8ef4f611972817576e221a4a2de3876dc345c3fe0xceb1b3892700a9d8546b9467504fb5bd8be6c04d 500,758.04757349 BNBNo0 BNB
2021-05-31 7:59:0022 days 15 hrs ago93170360x8ef4f611972817576e221a4a2de3876dc345c3fe0xceb1b3892700a9d8546b9467504fb5bd8be6c04d 500,758.04757349 BNBNo0 BNB
2021-05-31 7:58:0022 days 15 hrs ago93170190x8ef4f611972817576e221a4a2de3876dc345c3fe0xceb1b3892700a9d8546b9467504fb5bd8be6c04d 500,758.04757349 BNBNo0 BNB
2021-05-31 7:57:0022 days 15 hrs ago93170040x8ef4f611972817576e221a4a2de3876dc345c3fe0xceb1b3892700a9d8546b9467504fb5bd8be6c04d 500,758.04757349 BNBNo0 BNB
2021-05-31 7:56:0022 days 15 hrs ago93169870x8ef4f611972817576e221a4a2de3876dc345c3fe0xceb1b3892700a9d8546b9467504fb5bd8be6c04d 500,758.04757349 BNBNo0 BNB
2021-05-31 7:55:0022 days 15 hrs ago93169700x8ef4f611972817576e221a4a2de3876dc345c3fe0xceb1b3892700a9d8546b9467504fb5bd8be6c04d 500,758.04757349 BNBNo0 BNB
2021-05-31 7:54:0022 days 15 hrs ago93169510x8ef4f611972817576e221a4a2de3876dc345c3fe0xceb1b3892700a9d8546b9467504fb5bd8be6c04d 500,758.04757349 BNBNo0 BNB
2021-05-31 7:53:0022 days 15 hrs ago93169340x8ef4f611972817576e221a4a2de3876dc345c3fe0xceb1b3892700a9d8546b9467504fb5bd8be6c04d 500,758.04757349 BNBNo0 BNB
2021-05-31 7:52:0022 days 15 hrs ago93169170x8ef4f611972817576e221a4a2de3876dc345c3fe0xceb1b3892700a9d8546b9467504fb5bd8be6c04d 500,758.04757349 BNBNo0 BNB
2021-05-31 7:51:0022 days 15 hrs ago93169030x8ef4f611972817576e221a4a2de3876dc345c3fe0xceb1b3892700a9d8546b9467504fb5bd8be6c04d 500,758.04757349 BNBNo0 BNB
2021-05-31 7:50:0022 days 15 hrs ago93168880x8ef4f611972817576e221a4a2de3876dc345c3fe0xceb1b3892700a9d8546b9467504fb5bd8be6c04d 500,758.04757349 BNBNo0 BNB
2021-05-31 7:49:0022 days 15 hrs ago93168720x8ef4f611972817576e221a4a2de3876dc345c3fe0xceb1b3892700a9d8546b9467504fb5bd8be6c04d 500,758.04757349 BNBNo0 BNB
2021-05-31 7:48:0022 days 15 hrs ago93168570x8ef4f611972817576e221a4a2de3876dc345c3fe0xceb1b3892700a9d8546b9467504fb5bd8be6c04d 500,758.04757349 BNBNo0 BNB
Block Uncle Number Difficulty Gas Used Reward
Loading